Time,TemperatureF,DewpointF,PressureIn,WindDirection,WindDirectionDegrees,WindSpeedMPH,WindSpeedGustMPH,Humidity,HourlyPrecipIn,Conditions,Clouds,dailyrainin,SoftwareType,DateUTC
2013-07-09 00:01:00,67.9,38.3,30.19,SSE,158,0.4,2.0,34,0.00,,,0.00,WUHU216HW,2013-07-09 06:01:00,
2013-07-09 00:06:00,67.7,38.9,30.20,WSW,248,0.9,1.6,35,0.00,,,0.00,WUHU216HW,2013-07-09 06:06:00,
2013-07-09 00:11:00,67.5,38.7,30.20,South,180,1.1,1.8,35,0.00,,,0.00,WUHU216HW,2013-07-09 06:11:00,
2013-07-09 00:16:00,67.3,38.5,30.19,South,180,0.0,1.8,35,0.00,,,0.00,WUHU216HW,2013-07-09 06:16:00,
2013-07-09 00:21:00,67.0,37.5,30.20,SW,225,0.4,1.8,34,0.00,,,0.00,WUHU216HW,2013-07-09 06:21:00,
2013-07-09 00:26:00,66.8,37.4,30.19,SE,135,2.2,2.2,34,0.00,,,0.00,WUHU216HW,2013-07-09 06:26:00,
2013-07-09 00:31:00,66.6,37.9,30.19,West,270,1.8,2.5,35,0.00,,,0.00,WUHU216HW,2013-07-09 06:31:00,
2013-07-09 00:36:00,66.8,38.8,30.20,SSW,203,0.9,2.5,36,0.00,,,0.00,WUHU216HW,2013-07-09 06:36:00,
2013-07-09 00:41:00,66.8,38.1,30.20,South,180,0.0,3.4,35,0.00,,,0.00,WUHU216HW,2013-07-09 06:41:00,
2013-07-09 00:46:00,66.4,37.8,30.20,WSW,248,1.1,3.4,35,0.00,,,0.00,WUHU216HW,2013-07-09 06:46:00,
2013-07-09 00:51:00,66.2,38.3,30.20,SE,135,0.4,2.2,36,0.00,,,0.00,WUHU216HW,2013-07-09 06:51:00,
2013-07-09 00:56:00,66.1,38.2,30.19,WSW,248,0.2,2.2,36,0.00,,,0.00,WUHU216HW,2013-07-09 06:56:00,
2013-07-09 01:01:00,66.1,38.2,30.19,West,270,1.8,1.8,36,0.00,,,0.00,WUHU216HW,2013-07-09 07:01:00,
2013-07-09 01:06:00,65.9,38.0,30.19,SE,135,0.7,1.8,36,0.00,,,0.00,WUHU216HW,2013-07-09 07:06:00,
2013-07-09 01:11:00,65.7,37.9,30.19,South,180,0.0,1.8,36,0.00,,,0.00,WUHU216HW,2013-07-09 07:11:00,
2013-07-09 01:16:00,65.7,37.9,30.19,SE,135,0.7,1.8,36,0.00,,,0.00,WUHU216HW,2013-07-09 07:16:00,
2013-07-09 01:21:00,65.7,38.6,30.19,West,270,0.4,1.8,37,0.00,,,0.00,WUHU216HW,2013-07-09 07:21:00,
2013-07-09 01:26:00,65.9,38.7,30.19,WSW,248,0.0,1.8,37,0.00,,,0.00,WUHU216HW,2013-07-09 07:26:00,
2013-07-09 01:31:00,65.7,38.6,30.19,SW,225,0.0,1.1,37,0.00,,,0.00,WUHU216HW,2013-07-09 07:31:00,
2013-07-09 01:36:00,65.7,38.6,30.20,WSW,248,1.1,1.1,37,0.00,,,0.00,WUHU216HW,2013-07-09 07:36:00,
2013-07-09 01:41:00,65.7,38.6,30.20,SSE,158,0.2,2.2,37,0.00,,,0.00,WUHU216HW,2013-07-09 07:41:00,
2013-07-09 01:46:00,65.7,38.6,30.20,South,180,0.0,2.2,37,0.00,,,0.00,WUHU216HW,2013-07-09 07:46:00,
2013-07-09 01:52:00,65.5,38.4,30.20,WSW,248,0.0,1.3,37,0.00,,,0.00,WUHU216HW,2013-07-09 07:52:00,
2013-07-09 01:57:00,65.5,38.4,30.20,SW,225,1.1,1.3,37,0.00,,,0.00,WUHU216HW,2013-07-09 07:57:00,
2013-07-09 02:02:00,65.5,38.4,30.19,SSW,203,0.4,1.6,37,0.00,,,0.00,WUHU216HW,2013-07-09 08:02:00,
2013-07-09 02:07:00,65.5,38.4,30.19,WSW,248,0.7,1.6,37,0.00,,,0.00,WUHU216HW,2013-07-09 08:07:00,
2013-07-09 02:12:00,65.3,38.3,30.19,WSW,248,1.1,1.8,37,0.00,,,0.00,WUHU216HW,2013-07-09 08:12:00,
2013-07-09 02:17:00,65.3,38.3,30.19,WSW,248,0.4,1.8,37,0.00,,,0.00,WUHU216HW,2013-07-09 08:17:00,
2013-07-09 02:22:00,65.3,38.3,30.19,WSW,248,0.0,1.8,37,0.00,,,0.00,WUHU216HW,2013-07-09 08:22:00,
2013-07-09 02:27:00,65.2,38.1,30.19,West,270,0.7,1.3,37,0.00,,,0.00,WUHU216HW,2013-07-09 08:27:00,
2013-07-09 02:32:00,65.0,37.9,30.19,South,180,0.0,0.7,37,0.00,,,0.00,WUHU216HW,2013-07-09 08:32:00,
2013-07-09 02:37:00,64.8,37.8,30.19,South,180,0.0,1.1,37,0.00,,,0.00,WUHU216HW,2013-07-09 08:37:00,
2013-07-09 02:42:00,64.6,38.4,30.19,SW,225,0.4,1.1,38,0.00,,,0.00,WUHU216HW,2013-07-09 08:42:00,
2013-07-09 02:47:00,64.6,38.4,30.19,SSE,158,1.1,2.5,38,0.00,,,0.00,WUHU216HW,2013-07-09 08:47:00,
2013-07-09 02:52:00,64.6,38.4,30.19,South,180,0.0,3.1,38,0.00,,,0.00,WUHU216HW,2013-07-09 08:52:00,
2013-07-09 02:57:00,64.6,38.4,30.19,WSW,248,1.1,3.1,38,0.00,,,0.00,WUHU216HW,2013-07-09 08:57:00,
2013-07-09 03:02:00,64.6,38.4,30.19,WSW,248,0.0,1.6,38,0.00,,,0.00,WUHU216HW,2013-07-09 09:02:00,
2013-07-09 03:07:00,64.6,38.4,30.19,SSW,203,0.0,1.6,38,0.00,,,0.00,WUHU216HW,2013-07-09 09:07:00,
2013-07-09 03:12:00,64.6,38.4,30.19,WSW,248,0.0,1.1,38,0.00,,,0.00,WUHU216HW,2013-07-09 09:12:00,
2013-07-09 03:17:00,64.6,38.4,30.19,South,180,0.0,1.1,38,0.00,,,0.00,WUHU216HW,2013-07-09 09:17:00,
2013-07-09 03:22:00,64.6,38.4,30.19,SW,225,0.4,1.1,38,0.00,,,0.00,WUHU216HW,2013-07-09 09:22:00,
2013-07-09 03:27:00,64.8,38.5,30.19,West,270,0.4,1.1,38,0.00,,,0.00,WUHU216HW,2013-07-09 09:27:00,
2013-07-09 03:32:00,65.0,38.6,30.19,West,270,0.0,1.1,38,0.00,,,0.00,WUHU216HW,2013-07-09 09:32:00,
2013-07-09 03:37:00,65.0,38.6,30.19,West,270,1.6,2.2,38,0.00,,,0.00,WUHU216HW,2013-07-09 09:37:00,
2013-07-09 03:42:00,65.3,39.0,30.19,SW,225,1.1,2.2,38,0.00,,,0.00,WUHU216HW,2013-07-09 09:42:00,
2013-07-09 03:47:00,65.3,39.0,30.19,SW,225,0.9,2.2,38,0.00,,,0.00,WUHU216HW,2013-07-09 09:47:00,
2013-07-09 03:52:00,65.2,38.8,30.19,WSW,248,0.0,2.2,38,0.00,,,0.00,WUHU216HW,2013-07-09 09:52:00,
2013-07-09 03:57:00,65.0,38.6,30.19,SW,225,0.2,1.8,38,0.00,,,0.00,WUHU216HW,2013-07-09 09:57:00,
2013-07-09 04:02:00,64.6,38.4,30.19,SSW,203,0.0,1.8,38,0.00,,,0.00,WUHU216HW,2013-07-09 10:02:00,
2013-07-09 04:07:00,64.6,38.4,30.19,WSW,248,0.0,1.1,38,0.00,,,0.00,WUHU216HW,2013-07-09 10:07:00,
2013-07-09 04:12:00,64.6,38.4,30.19,SW,225,0.0,1.1,38,0.00,,,0.00,WUHU216HW,2013-07-09 10:12:00,
2013-07-09 04:17:00,64.6,38.4,30.19,WSW,248,0.4,0.9,38,0.00,,,0.00,WUHU216HW,2013-07-09 10:17:00,
2013-07-09 04:22:00,64.8,38.5,30.19,SW,225,0.0,0.9,38,0.00,,,0.00,WUHU216HW,2013-07-09 10:22:00,
2013-07-09 04:27:00,65.2,38.8,30.19,SW,225,0.0,1.8,38,0.00,,,0.00,WUHU216HW,2013-07-09 10:27:00,
2013-07-09 04:32:00,65.7,39.3,30.19,SW,225,0.2,1.8,38,0.00,,,0.00,WUHU216HW,2013-07-09 10:32:00,
2013-07-09 04:37:00,65.9,39.4,30.19,SW,225,0.0,0.9,38,0.00,,,0.00,WUHU216HW,2013-07-09 10:37:00,
2013-07-09 04:42:00,65.9,39.4,30.19,South,180,0.0,0.7,38,0.00,,,0.00,WUHU216HW,2013-07-09 10:42:00,
2013-07-09 04:47:00,65.9,39.4,30.19,WNW,293,0.4,1.1,38,0.00,,,0.00,WUHU216HW,2013-07-09 10:47:00,
2013-07-09 04:52:00,65.9,39.4,30.20,West,270,0.0,1.3,38,0.00,,,0.00,WUHU216HW,2013-07-09 10:52:00,
2013-07-09 04:57:00,65.7,39.3,30.20,SW,225,1.3,1.8,38,0.00,,,0.00,WUHU216HW,2013-07-09 10:57:00,
2013-07-09 05:02:00,65.7,39.3,30.20,WSW,248,0.0,1.8,38,0.00,,,0.00,WUHU216HW,2013-07-09 11:02:00,
2013-07-09 05:07:00,65.3,39.0,30.20,SW,225,0.0,1.3,38,0.00,,,0.00,WUHU216HW,2013-07-09 11:07:00,
2013-07-09 05:12:00,65.2,39.5,30.20,West,270,0.7,1.8,39,0.00,,,0.00,WUHU216HW,2013-07-09 11:12:00,
2013-07-09 05:17:00,65.5,39.2,30.20,WSW,248,1.8,2.7,38,0.00,,,0.00,WUHU216HW,2013-07-09 11:17:00,
2013-07-09 05:22:00,66.4,40.0,30.20,SW,225,1.3,3.4,38,0.00,,,0.00,WUHU216HW,2013-07-09 11:22:00,
2013-07-09 05:27:00,67.1,40.6,30.20,South,180,2.2,3.4,38,0.00,,,0.00,WUHU216HW,2013-07-09 11:27:00,
2013-07-09 05:32:00,67.5,40.9,30.20,South,180,1.8,3.4,38,0.00,,,0.00,WUHU216HW,2013-07-09 11:32:00,
2013-07-09 05:37:00,67.9,40.5,30.20,WSW,248,2.5,3.4,37,0.00,,,0.00,WUHU216HW,2013-07-09 11:37:00,
2013-07-09 05:42:00,68.6,41.1,30.20,SSW,203,1.8,3.1,37,0.00,,,0.00,WUHU216HW,2013-07-09 11:42:00,
2013-07-09 05:47:00,68.8,41.3,30.20,SW,225,2.2,3.1,37,0.00,,,0.00,WUHU216HW,2013-07-09 11:47:00,
2013-07-09 05:52:00,69.1,40.9,30.20,WSW,248,0.0,4.0,36,0.00,,,0.00,WUHU216HW,2013-07-09 11:52:00,
2013-07-09 05:57:00,69.5,40.4,30.20,WSW,248,0.0,4.0,35,0.00,,,0.00,WUHU216HW,2013-07-09 11:57:00,
2013-07-09 06:02:00,69.8,40.8,30.20,SW,225,0.4,2.0,35,0.00,,,0.00,WUHU216HW,2013-07-09 12:02:00,
2013-07-09 06:07:00,70.6,41.4,30.20,SW,225,0.2,2.7,35,0.00,,,0.00,WUHU216HW,2013-07-09 12:07:00,
2013-07-09 06:12:00,71.5,42.2,30.20,South,180,1.8,2.9,35,0.00,,,0.00,WUHU216HW,2013-07-09 12:12:00,
2013-07-09 06:17:00,73.1,42.1,30.21,WNW,293,2.9,4.7,33,0.00,,,0.00,WUHU216HW,2013-07-09 12:17:00,
2013-07-09 06:22:00,74.5,42.7,30.21,NE,45,1.6,5.6,32,0.00,,,0.00,WUHU216HW,2013-07-09 12:22:00,
2013-07-09 06:27:00,75.6,42.8,30.21,NNE,23,0.9,5.6,31,0.00,,,0.00,WUHU216HW,2013-07-09 12:27:00,
2013-07-09 06:32:00,76.1,43.3,30.21,WSW,248,0.4,4.7,31,0.00,,,0.00,WUHU216HW,2013-07-09 12:32:00,
2013-07-09 06:37:00,76.1,43.3,30.21,SW,225,0.7,2.5,31,0.00,,,0.00,WUHU216HW,2013-07-09 12:37:00,
2013-07-09 06:42:00,76.0,42.4,30.21,WSW,248,2.7,4.7,30,0.00,,,0.00,WUHU216HW,2013-07-09 12:42:00,
2013-07-09 06:47:00,76.1,42.6,30.21,West,270,2.7,5.4,30,0.00,,,0.00,WUHU216HW,2013-07-09 12:47:00,
2013-07-09 06:52:00,76.5,42.9,30.21,West,270,0.4,5.4,30,0.00,,,0.00,WUHU216HW,2013-07-09 12:52:00,
2013-07-09 06:57:00,76.7,43.0,30.21,SE,135,1.3,4.7,30,0.00,,,0.00,WUHU216HW,2013-07-09 12:57:00,
2013-07-09 07:02:00,77.2,43.6,30.21,SSW,203,1.8,6.5,30,0.00,,,0.00,WUHU216HW,2013-07-09 13:02:00,
2013-07-09 07:07:00,78.1,44.3,30.22,SE,135,1.1,6.5,30,0.00,,,0.00,WUHU216HW,2013-07-09 13:07:00,
2013-07-09 07:12:00,78.8,43.7,30.22,SSW,203,1.1,8.3,29,0.00,,,0.00,WUHU216HW,2013-07-09 13:12:00,
2013-07-09 07:17:00,79.2,41.0,30.22,WNW,293,5.6,8.3,26,0.00,,,0.00,WUHU216HW,2013-07-09 13:17:00,
2013-07-09 07:22:00,79.6,43.4,30.22,WSW,248,1.1,7.6,28,0.00,,,0.00,WUHU216HW,2013-07-09 13:22:00,
2013-07-09 07:27:00,79.7,43.6,30.22,WNW,293,0.9,4.7,28,0.00,,,0.00,WUHU216HW,2013-07-09 13:27:00,
2013-07-09 07:32:00,80.3,43.0,30.22,WSW,248,2.2,3.8,27,0.00,,,0.00,WUHU216HW,2013-07-09 13:32:00,
2013-07-09 07:37:00,81.0,42.6,30.22,NNW,338,4.7,6.0,26,0.00,,,0.00,WUHU216HW,2013-07-09 13:37:00,
2013-07-09 07:42:00,81.7,43.1,30.22,NW,315,1.1,6.0,26,0.00,,,0.00,WUHU216HW,2013-07-09 13:42:00,
2013-07-09 07:47:00,82.1,41.3,30.22,SW,225,1.6,4.9,24,0.00,,,0.00,WUHU216HW,2013-07-09 13:47:00,
2013-07-09 07:52:00,82.3,42.5,30.22,SW,225,2.2,5.1,25,0.00,,,0.00,WUHU216HW,2013-07-09 13:52:00,
2013-07-09 07:57:00,83.2,42.2,30.22,North,0,3.8,5.1,24,0.00,,,0.00,WUHU216HW,2013-07-09 13:57:00,
2013-07-09 08:02:00,83.9,41.8,30.23,North,0,2.5,4.7,23,0.00,,,0.00,WUHU216HW,2013-07-09 14:02:00,
2013-07-09 08:07:00,84.2,41.1,30.23,NW,315,3.4,4.7,22,0.00,,,0.00,WUHU216HW,2013-07-09 14:07:00,
2013-07-09 08:12:00,84.6,42.4,30.23,West,270,0.0,4.5,23,0.00,,,0.00,WUHU216HW,2013-07-09 14:12:00,
2013-07-09 08:17:00,85.9,41.2,30.23,South,180,0.4,4.0,21,0.00,,,0.00,WUHU216HW,2013-07-09 14:17:00,
2013-07-09 08:22:00,87.5,44.8,30.23,SSE,158,3.4,4.3,23,0.00,,,0.00,WUHU216HW,2013-07-09 14:22:00,
2013-07-09 08:27:00,88.4,45.5,30.23,East,90,2.5,4.5,23,0.00,,,0.00,WUHU216HW,2013-07-09 14:27:00,
2013-07-09 08:32:00,88.6,44.6,30.23,SSE,158,1.6,4.5,22,0.00,,,0.00,WUHU216HW,2013-07-09 14:32:00,
2013-07-09 08:37:00,88.9,44.9,30.23,SE,135,2.2,3.6,22,0.00,,,0.00,WUHU216HW,2013-07-09 14:37:00,
2013-07-09 08:42:00,89.5,44.3,30.23,ESE,113,2.0,3.8,21,0.00,,,0.00,WUHU216HW,2013-07-09 14:42:00,
2013-07-09 08:47:00,90.0,44.7,30.23,North,0,0.4,4.7,21,0.00,,,0.00,WUHU216HW,2013-07-09 14:47:00,
2013-07-09 08:52:00,90.0,44.7,30.23,SSW,203,2.5,4.7,21,0.00,,,0.00,WUHU216HW,2013-07-09 14:52:00,
2013-07-09 08:57:00,91.6,41.5,30.23,WSW,248,4.7,8.3,18,0.00,,,0.00,WUHU216HW,2013-07-09 14:57:00,
2013-07-09 09:02:00,92.3,40.3,30.23,SSW,203,2.5,8.3,17,0.00,,,0.00,WUHU216HW,2013-07-09 15:02:00,
2013-07-09 09:07:00,92.9,40.7,30.23,NE,45,2.5,7.8,17,0.00,,,0.00,WUHU216HW,2013-07-09 15:07:00,
2013-07-09 09:12:00,92.7,40.6,30.23,ESE,113,3.4,5.8,17,0.00,,,0.00,WUHU216HW,2013-07-09 15:12:00,
2013-07-09 09:17:00,92.7,38.8,30.23,South,180,1.1,6.7,16,0.00,,,0.00,WUHU216HW,2013-07-09 15:17:00,
2013-07-09 09:22:00,93.1,42.6,30.23,East,90,5.8,6.7,18,0.00,,,0.00,WUHU216HW,2013-07-09 15:22:00,
2013-07-09 09:27:00,93.2,41.0,30.23,North,0,4.0,5.8,17,0.00,,,0.00,WUHU216HW,2013-07-09 15:27:00,
2013-07-09 09:32:00,92.9,40.7,30.23,NNE,23,5.4,5.8,17,0.00,,,0.00,WUHU216HW,2013-07-09 15:32:00,
2013-07-09 09:37:00,92.7,42.3,30.23,SE,135,1.1,6.0,18,0.00,,,0.00,WUHU216HW,2013-07-09 15:37:00,
2013-07-09 09:42:00,93.1,44.4,30.23,ESE,113,2.7,6.0,19,0.00,,,0.00,WUHU216HW,2013-07-09 15:42:00,
2013-07-09 09:47:00,93.2,42.8,30.23,North,0,2.2,5.4,18,0.00,,,0.00,WUHU216HW,2013-07-09 15:47:00,
2013-07-09 09:52:00,91.8,43.4,30.23,NNE,23,6.9,9.8,19,0.00,,,0.00,WUHU216HW,2013-07-09 15:52:00,
2013-07-09 09:57:00,90.0,44.7,30.23,North,0,4.7,9.8,21,0.00,,,0.00,WUHU216HW,2013-07-09 15:57:00,
2013-07-09 10:02:00,89.8,45.7,30.23,SSE,158,1.8,7.4,22,0.00,,,0.00,WUHU216HW,2013-07-09 16:02:00,
2013-07-09 10:07:00,90.7,45.4,30.23,SE,135,2.5,5.4,21,0.00,,,0.00,WUHU216HW,2013-07-09 16:07:00,
2013-07-09 10:12:00,90.7,42.5,30.24,ESE,113,1.1,5.4,19,0.00,,,0.00,WUHU216HW,2013-07-09 16:12:00,
2013-07-09 10:17:00,90.7,42.5,30.24,North,0,4.0,4.7,19,0.00,,,0.00,WUHU216HW,2013-07-09 16:17:00,
2013-07-09 10:22:00,90.4,45.0,30.23,ESE,113,3.6,4.9,21,0.00,,,0.00,WUHU216HW,2013-07-09 16:22:00,
2013-07-09 10:27:00,90.4,46.2,30.23,SSE,158,1.6,6.0,22,0.00,,,0.00,WUHU216HW,2013-07-09 16:27:00,
2013-07-09 10:32:00,91.4,47.0,30.24,ESE,113,1.3,6.3,22,0.00,,,0.00,WUHU216HW,2013-07-09 16:32:00,
2013-07-09 10:37:00,92.7,49.2,30.23,ENE,68,0.4,6.3,23,0.00,,,0.00,WUHU216HW,2013-07-09 16:37:00,
2013-07-09 10:42:00,93.2,47.3,30.24,ESE,113,2.7,6.0,21,0.00,,,0.00,WUHU216HW,2013-07-09 16:42:00,
2013-07-09 10:47:00,92.9,47.1,30.24,WSW,248,1.3,6.0,21,0.00,,,0.00,WUHU216HW,2013-07-09 16:47:00,
2013-07-09 10:52:00,92.7,44.1,30.24,SE,135,3.8,5.1,19,0.00,,,0.00,WUHU216HW,2013-07-09 16:52:00,
2013-07-09 10:57:00,92.9,44.2,30.23,ENE,68,4.5,5.4,19,0.00,,,0.00,WUHU216HW,2013-07-09 16:57:00,
2013-07-09 11:02:00,93.1,47.3,30.23,ESE,113,2.7,6.9,21,0.00,,,0.00,WUHU216HW,2013-07-09 17:02:00,
2013-07-09 11:07:00,93.8,44.9,30.23,SSE,158,2.2,6.9,19,0.00,,,0.00,WUHU216HW,2013-07-09 17:07:00,
2013-07-09 11:12:00,94.0,45.1,30.23,NNE,23,6.5,6.7,19,0.00,,,0.00,WUHU216HW,2013-07-09 17:12:00,
2013-07-09 11:17:00,92.5,46.8,30.24,West,270,1.6,6.5,21,0.00,,,0.00,WUHU216HW,2013-07-09 17:17:00,
2013-07-09 11:22:00,91.4,48.2,30.24,South,180,4.9,7.8,23,0.00,,,0.00,WUHU216HW,2013-07-09 17:22:00,
2013-07-09 11:27:00,91.1,47.8,30.24,SSE,158,3.1,7.8,23,0.00,,,0.00,WUHU216HW,2013-07-09 17:27:00,
2013-07-09 11:32:00,91.1,48.9,30.24,NE,45,1.6,5.4,24,0.00,,,0.00,WUHU216HW,2013-07-09 17:32:00,
2013-07-09 11:37:00,91.6,48.2,30.24,South,180,5.1,6.7,23,0.00,,,0.00,WUHU216HW,2013-07-09 17:37:00,
2013-07-09 11:42:00,91.8,48.4,30.24,NNE,23,2.0,6.7,23,0.00,,,0.00,WUHU216HW,2013-07-09 17:42:00,
2013-07-09 11:47:00,91.6,47.2,30.23,SSW,203,2.0,6.9,22,0.00,,,0.00,WUHU216HW,2013-07-09 17:47:00,
2013-07-09 11:52:00,90.2,46.0,30.24,SW,225,3.1,7.2,22,0.00,,,0.00,WUHU216HW,2013-07-09 17:52:00,
2013-07-09 11:57:00,89.5,46.4,30.24,NW,315,2.2,7.2,23,0.00,,,0.00,WUHU216HW,2013-07-09 17:57:00,
2013-07-09 12:02:00,89.3,46.4,30.24,SW,225,0.4,3.8,23,0.00,,,0.00,WUHU216HW,2013-07-09 18:02:00,
2013-07-09 12:07:00,89.3,46.4,30.24,NW,315,1.8,3.4,23,0.00,,,0.00,WUHU216HW,2013-07-09 18:07:00,
2013-07-09 12:12:00,89.6,46.6,30.24,WSW,248,2.7,4.0,23,0.00,,,0.00,WUHU216HW,2013-07-09 18:12:00,
2013-07-09 12:17:00,90.4,46.2,30.24,NNW,338,0.4,4.5,22,0.00,,,0.00,WUHU216HW,2013-07-09 18:17:00,
2013-07-09 12:22:00,90.2,46.0,30.24,North,0,2.5,4.5,22,0.00,,,0.00,WUHU216HW,2013-07-09 18:22:00,
2013-07-09 12:27:00,89.6,45.5,30.23,South,180,1.3,3.8,22,0.00,,,0.00,WUHU216HW,2013-07-09 18:27:00,
2013-07-09 12:32:00,90.0,45.8,30.23,ESE,113,0.4,2.7,22,0.00,,,0.00,WUHU216HW,2013-07-09 18:32:00,
2013-07-09 12:37:00,90.0,44.7,30.23,SSE,158,2.9,6.0,21,0.00,,,0.00,WUHU216HW,2013-07-09 18:37:00,
2013-07-09 12:42:00,89.3,44.2,30.23,NE,45,1.6,8.7,21,0.00,,,0.00,WUHU216HW,2013-07-09 18:42:00,
2013-07-09 12:47:00,89.1,44.0,30.23,SSE,158,0.4,8.7,21,0.00,,,0.00,WUHU216HW,2013-07-09 18:47:00,
2013-07-09 12:52:00,89.6,44.5,30.23,South,180,4.5,4.5,21,0.00,,,0.00,WUHU216HW,2013-07-09 18:52:00,
2013-07-09 12:57:00,90.2,42.0,30.23,ESE,113,2.9,4.5,19,0.00,,,0.00,WUHU216HW,2013-07-09 18:57:00,
2013-07-09 13:02:00,90.4,42.2,30.23,ESE,113,4.5,4.5,19,0.00,,,0.00,WUHU216HW,2013-07-09 19:02:00,
2013-07-09 13:07:00,90.7,42.5,30.23,SSE,158,3.1,6.3,19,0.00,,,0.00,WUHU216HW,2013-07-09 19:07:00,
2013-07-09 13:12:00,90.5,42.4,30.23,NE,45,0.7,6.3,19,0.00,,,0.00,WUHU216HW,2013-07-09 19:12:00,
2013-07-09 13:17:00,90.5,45.2,30.23,East,90,1.1,4.0,21,0.00,,,0.00,WUHU216HW,2013-07-09 19:17:00,
2013-07-09 13:22:00,91.6,43.2,30.23,NE,45,2.5,4.0,19,0.00,,,0.00,WUHU216HW,2013-07-09 19:22:00,
2013-07-09 13:27:00,92.0,41.8,30.23,NNW,338,1.6,4.9,18,0.00,,,0.00,WUHU216HW,2013-07-09 19:27:00,
2013-07-09 13:32:00,91.8,41.6,30.22,SSW,203,1.8,4.9,18,0.00,,,0.00,WUHU216HW,2013-07-09 19:32:00,
2013-07-09 13:37:00,92.0,41.8,30.22,East,90,3.4,5.6,18,0.00,,,0.00,WUHU216HW,2013-07-09 19:37:00,
2013-07-09 13:42:00,91.6,41.5,30.22,ESE,113,4.0,5.6,18,0.00,,,0.00,WUHU216HW,2013-07-09 19:42:00,
2013-07-09 13:47:00,91.6,41.5,30.22,SSE,158,5.6,5.6,18,0.00,,,0.00,WUHU216HW,2013-07-09 19:47:00,
2013-07-09 13:52:00,91.1,41.0,30.22,SSE,158,3.8,8.5,18,0.00,,,0.00,WUHU216HW,2013-07-09 19:52:00,
2013-07-09 13:57:00,91.6,41.5,30.21,NE,45,1.8,8.5,18,0.00,,,0.00,WUHU216HW,2013-07-09 19:57:00,
2013-07-09 14:02:00,92.0,40.0,30.21,WSW,248,0.7,7.8,17,0.00,,,0.00,WUHU216HW,2013-07-09 20:02:00,
2013-07-09 14:07:00,92.7,40.6,30.21,SSW,203,2.0,7.4,17,0.00,,,0.00,WUHU216HW,2013-07-09 20:07:00,
2013-07-09 14:12:00,92.7,38.8,30.21,ESE,113,3.8,7.8,16,0.00,,,0.00,WUHU216HW,2013-07-09 20:12:00,
2013-07-09 14:17:00,92.5,36.9,30.21,ENE,68,6.3,9.4,15,0.00,,,0.00,WUHU216HW,2013-07-09 20:17:00,
2013-07-09 14:22:00,92.5,36.9,30.20,ESE,113,3.1,9.4,15,0.00,,,0.00,WUHU216HW,2013-07-09 20:22:00,
2013-07-09 14:27:00,91.8,36.4,30.20,East,90,0.9,6.5,15,0.00,,,0.00,WUHU216HW,2013-07-09 20:27:00,
2013-07-09 14:32:00,91.4,36.1,30.20,ENE,68,6.3,6.5,15,0.00,,,0.00,WUHU216HW,2013-07-09 20:32:00,
2013-07-09 14:37:00,91.6,36.3,30.20,North,0,4.3,6.3,15,0.00,,,0.00,WUHU216HW,2013-07-09 20:37:00,
2013-07-09 14:42:00,91.8,38.1,30.20,North,0,5.8,11.0,16,0.00,,,0.00,WUHU216HW,2013-07-09 20:42:00,
2013-07-09 14:47:00,91.8,38.1,30.20,NNW,338,3.1,11.0,16,0.00,,,0.00,WUHU216HW,2013-07-09 20:47:00,
2013-07-09 14:52:00,91.6,38.0,30.20,NNW,338,1.1,5.8,16,0.00,,,0.00,WUHU216HW,2013-07-09 20:52:00,
2013-07-09 14:57:00,91.1,37.5,30.20,WSW,248,0.9,5.8,16,0.00,,,0.00,WUHU216HW,2013-07-09 20:57:00,
2013-07-09 15:02:00,91.3,37.7,30.20,NNW,338,1.3,5.8,16,0.00,,,0.00,WUHU216HW,2013-07-09 21:02:00,
2013-07-09 15:07:00,91.4,37.8,30.20,SE,135,2.2,5.8,16,0.00,,,0.00,WUHU216HW,2013-07-09 21:07:00,
2013-07-09 15:12:00,90.9,37.5,30.21,SE,135,2.7,5.8,16,0.00,,,0.00,WUHU216HW,2013-07-09 21:12:00,
2013-07-09 15:17:00,91.4,37.8,30.20,SE,135,2.5,5.4,16,0.00,,,0.00,WUHU216HW,2013-07-09 21:17:00,
2013-07-09 15:22:00,91.4,37.8,30.21,ENE,68,1.8,5.4,16,0.00,,,0.00,WUHU216HW,2013-07-09 21:22:00,
2013-07-09 15:27:00,91.1,37.5,30.21,East,90,1.3,5.1,16,0.00,,,0.00,WUHU216HW,2013-07-09 21:27:00,
2013-07-09 15:32:00,90.5,37.1,30.20,SSW,203,1.1,4.9,16,0.00,,,0.00,WUHU216HW,2013-07-09 21:32:00,
2013-07-09 15:37:00,90.4,37.0,30.21,NW,315,1.6,3.4,16,0.00,,,0.00,WUHU216HW,2013-07-09 21:37:00,
2013-07-09 15:42:00,90.0,36.7,30.21,North,0,5.4,5.4,16,0.00,,,0.00,WUHU216HW,2013-07-09 21:42:00,
2013-07-09 15:47:00,89.3,37.9,30.21,NE,45,3.4,5.4,17,0.00,,,0.00,WUHU216HW,2013-07-09 21:47:00,
2013-07-09 15:52:00,88.7,37.4,30.21,North,0,1.3,5.4,17,0.00,,,0.00,WUHU216HW,2013-07-09 21:52:00,
2013-07-09 15:57:00,88.2,37.0,30.21,NW,315,1.3,4.7,17,0.00,,,0.00,WUHU216HW,2013-07-09 21:57:00,
2013-07-09 16:02:00,87.8,38.5,30.21,NE,45,1.1,4.3,18,0.00,,,0.00,WUHU216HW,2013-07-09 22:02:00,
2013-07-09 16:07:00,87.7,36.6,30.21,SE,135,0.7,4.9,17,0.00,,,0.00,WUHU216HW,2013-07-09 22:07:00,
2013-07-09 16:12:00,87.5,38.2,30.21,NW,315,2.0,4.9,18,0.00,,,0.00,WUHU216HW,2013-07-09 22:12:00,
2013-07-09 16:17:00,87.3,38.0,30.21,North,0,4.0,4.0,18,0.00,,,0.00,WUHU216HW,2013-07-09 22:17:00,
2013-07-09 16:22:00,86.9,37.7,30.22,SSE,158,0.4,4.0,18,0.00,,,0.00,WUHU216HW,2013-07-09 22:22:00,
2013-07-09 16:27:00,86.9,37.7,30.22,NE,45,2.9,4.9,18,0.00,,,0.00,WUHU216HW,2013-07-09 22:27:00,
2013-07-09 16:32:00,86.8,37.5,30.22,NNW,338,6.0,12.1,18,0.00,,,0.00,WUHU216HW,2013-07-09 22:32:00,
2013-07-09 16:37:00,86.2,41.6,30.22,NW,315,6.7,12.1,21,0.00,,,0.00,WUHU216HW,2013-07-09 22:37:00,
2013-07-09 16:42:00,85.1,41.8,30.22,North,0,5.6,10.5,22,0.00,,,0.00,WUHU216HW,2013-07-09 22:42:00,
2013-07-09 16:47:00,84.8,41.5,30.22,NNE,23,4.3,11.2,22,0.00,,,0.00,WUHU216HW,2013-07-09 22:47:00,
2013-07-09 16:52:00,85.1,41.8,30.22,NNW,338,0.4,11.2,22,0.00,,,0.00,WUHU216HW,2013-07-09 22:52:00,
2013-07-09 16:57:00,86.0,41.4,30.22,NE,45,2.7,6.7,21,0.00,,,0.00,WUHU216HW,2013-07-09 22:57:00,
2013-07-09 17:02:00,86.0,41.4,30.22,NW,315,2.9,7.8,21,0.00,,,0.00,WUHU216HW,2013-07-09 23:02:00,
2013-07-09 17:07:00,86.4,41.8,30.22,North,0,4.0,7.8,21,0.00,,,0.00,WUHU216HW,2013-07-09 23:07:00,
2013-07-09 17:12:00,86.6,39.1,30.22,North,0,4.7,4.7,19,0.00,,,0.00,WUHU216HW,2013-07-09 23:12:00,
2013-07-09 17:17:00,86.6,39.1,30.22,ENE,68,4.7,4.7,19,0.00,,,0.00,WUHU216HW,2013-07-09 23:17:00,
2013-07-09 17:22:00,86.4,39.0,30.22,SE,135,4.0,5.6,19,0.00,,,0.00,WUHU216HW,2013-07-09 23:22:00,
2013-07-09 17:27:00,86.2,40.5,30.22,WNW,293,0.4,5.6,20,0.00,,,0.00,WUHU216HW,2013-07-09 23:27:00,
2013-07-09 17:32:00,86.2,38.8,30.21,South,180,1.8,2.9,19,0.00,,,0.00,WUHU216HW,2013-07-09 23:32:00,
2013-07-09 17:37:00,86.4,39.0,30.21,SE,135,0.7,2.7,19,0.00,,,0.00,WUHU216HW,2013-07-09 23:37:00,
2013-07-09 17:42:00,86.4,39.0,30.21,SSW,203,1.1,3.1,19,0.00,,,0.00,WUHU216HW,2013-07-09 23:42:00,
2013-07-09 17:47:00,86.4,39.0,30.21,NE,45,2.7,3.8,19,0.00,,,0.00,WUHU216HW,2013-07-09 23:47:00,
2013-07-09 17:52:00,86.2,38.8,30.21,NNE,23,1.3,3.8,19,0.00,,,0.00,WUHU216HW,2013-07-09 23:52:00,
2013-07-09 17:57:00,86.2,38.8,30.21,ENE,68,1.1,3.4,19,0.00,,,0.00,WUHU216HW,2013-07-09 23:57:00,
2013-07-09 18:02:00,86.4,40.7,30.21,ESE,113,1.1,3.1,20,0.00,,,0.00,WUHU216HW,2013-07-10 00:02:00,
2013-07-09 18:07:00,86.4,39.0,30.21,ESE,113,1.3,3.4,19,0.00,,,0.00,WUHU216HW,2013-07-10 00:07:00,
2013-07-09 18:12:00,86.4,40.7,30.21,NNE,23,1.1,3.4,20,0.00,,,0.00,WUHU216HW,2013-07-10 00:12:00,
2013-07-09 18:17:00,86.0,38.6,30.21,North,0,1.1,4.3,19,0.00,,,0.00,WUHU216HW,2013-07-10 00:17:00,
2013-07-09 18:22:00,85.9,40.1,30.21,NNE,23,0.4,4.3,20,0.00,,,0.00,WUHU216HW,2013-07-10 00:22:00,
2013-07-09 18:28:00,85.3,40.9,30.21,NNE,23,4.0,4.0,21,0.00,,,0.00,WUHU216HW,2013-07-10 00:28:00,
2013-07-09 18:33:00,85.3,40.9,30.21,North,0,3.8,5.6,21,0.00,,,0.00,WUHU216HW,2013-07-10 00:33:00,
2013-07-09 18:38:00,85.3,40.9,30.22,NW,315,0.9,5.6,21,0.00,,,0.00,WUHU216HW,2013-07-10 00:38:00,
2013-07-09 18:43:00,85.5,41.0,30.22,NNE,23,1.6,3.8,21,0.00,,,0.00,WUHU216HW,2013-07-10 00:43:00,
2013-07-09 18:47:00,85.3,40.9,30.22,North,0,2.7,3.4,21,0.00,,,0.00,WUHU216HW,2013-07-10 00:47:00,
2013-07-09 18:52:00,85.1,40.7,30.21,NNE,23,2.0,3.4,21,0.00,,,0.00,WUHU216HW,2013-07-10 00:52:00,
2013-07-09 18:57:00,84.8,40.4,30.21,NE,45,0.0,3.4,21,0.00,,,0.00,WUHU216HW,2013-07-10 00:57:00,
2013-07-09 19:02:00,84.6,40.2,30.21,West,270,0.0,3.4,21,0.00,,,0.00,WUHU216HW,2013-07-10 01:02:00,
2013-07-09 19:07:00,84.6,40.2,30.21,SE,135,0.4,0.9,21,0.00,,,0.00,WUHU216HW,2013-07-10 01:07:00,
2013-07-09 19:12:00,84.6,40.2,30.21,ESE,113,0.7,2.2,21,0.00,,,0.00,WUHU216HW,2013-07-10 01:12:00,
2013-07-09 19:17:00,84.4,40.1,30.21,SE,135,0.2,2.2,21,0.00,,,0.00,WUHU216HW,2013-07-10 01:17:00,
2013-07-09 19:22:00,84.2,40.0,30.21,SE,135,0.2,1.1,21,0.00,,,0.00,WUHU216HW,2013-07-10 01:22:00,
2013-07-09 19:28:00,84.1,39.8,30.21,SSE,158,0.0,0.9,21,0.00,,,0.00,WUHU216HW,2013-07-10 01:28:00,
2013-07-09 19:33:00,83.9,39.7,30.21,WSW,248,1.1,1.3,21,0.00,,,0.00,WUHU216HW,2013-07-10 01:33:00,
2013-07-09 19:38:00,83.9,39.7,30.21,WSW,248,0.4,1.3,21,0.00,,,0.00,WUHU216HW,2013-07-10 01:38:00,
2013-07-09 19:43:00,83.7,39.5,30.21,WSW,248,0.0,1.1,21,0.00,,,0.00,WUHU216HW,2013-07-10 01:43:00,
2013-07-09 19:48:00,83.5,40.4,30.21,SSW,203,0.4,0.4,22,0.00,,,0.00,WUHU216HW,2013-07-10 01:48:00,
2013-07-09 19:53:00,83.3,40.2,30.21,SW,225,0.9,1.1,22,0.00,,,0.00,WUHU216HW,2013-07-10 01:53:00,
2013-07-09 19:58:00,83.2,40.2,30.21,SW,225,0.4,1.1,22,0.00,,,0.00,WUHU216HW,2013-07-10 01:58:00,
2013-07-09 20:03:00,82.8,39.8,30.21,SW,225,0.4,1.1,22,0.00,,,0.00,WUHU216HW,2013-07-10 02:03:00,
2013-07-09 20:08:00,82.4,39.5,30.21,SW,225,0.0,1.1,22,0.00,,,0.00,WUHU216HW,2013-07-10 02:08:00,
2013-07-09 20:13:00,82.1,39.2,30.21,WSW,248,1.1,1.3,22,0.00,,,0.00,WUHU216HW,2013-07-10 02:13:00,
2013-07-09 20:18:00,81.7,39.0,30.21,WSW,248,0.0,1.8,22,0.00,,,0.00,WUHU216HW,2013-07-10 02:18:00,
2013-07-09 20:23:00,81.2,39.6,30.21,SSW,203,1.3,1.8,23,0.00,,,0.00,WUHU216HW,2013-07-10 02:23:00,
2013-07-09 20:28:00,80.5,39.0,30.21,SW,225,0.0,1.3,23,0.00,,,0.00,WUHU216HW,2013-07-10 02:28:00,
2013-07-09 20:33:00,79.9,38.5,30.22,SW,225,0.0,1.3,23,0.00,,,0.00,WUHU216HW,2013-07-10 02:33:00,
2013-07-09 20:38:00,79.2,37.8,30.22,SW,225,0.0,1.1,23,0.00,,,0.00,WUHU216HW,2013-07-10 02:38:00,
2013-07-09 20:43:00,78.5,38.3,30.22,SW,225,0.0,0.0,24,0.00,,,0.00,WUHU216HW,2013-07-10 02:43:00,
2013-07-09 20:48:00,77.8,37.7,30.22,WSW,248,0.7,1.1,24,0.00,,,0.00,WUHU216HW,2013-07-10 02:48:00,
2013-07-09 20:53:00,77.0,38.2,30.22,WSW,248,1.1,1.3,25,0.00,,,0.00,WUHU216HW,2013-07-10 02:53:00,
2013-07-09 20:58:00,76.5,37.7,30.23,WSW,248,0.0,1.3,25,0.00,,,0.00,WUHU216HW,2013-07-10 02:58:00,
2013-07-09 21:03:00,76.0,37.3,30.23,SW,225,0.4,2.5,25,0.00,,,0.00,WUHU216HW,2013-07-10 03:03:00,
2013-07-09 21:08:00,75.6,38.0,30.23,SSE,158,2.7,3.4,26,0.00,,,0.00,WUHU216HW,2013-07-10 03:08:00,
2013-07-09 21:13:00,75.6,40.1,30.23,WSW,248,2.0,3.6,28,0.00,,,0.00,WUHU216HW,2013-07-10 03:13:00,
2013-07-09 21:18:00,75.4,39.9,30.23,WSW,248,0.0,3.6,28,0.00,,,0.00,WUHU216HW,2013-07-10 03:18:00,
2013-07-09 21:23:00,75.2,39.7,30.24,WSW,248,1.1,1.8,28,0.00,,,0.00,WUHU216HW,2013-07-10 03:23:00,
2013-07-09 21:28:00,74.9,40.4,30.24,West,270,1.8,1.8,29,0.00,,,0.00,WUHU216HW,2013-07-10 03:28:00,
2013-07-09 21:33:00,74.5,40.1,30.25,SSW,203,0.4,1.8,29,0.00,,,0.00,WUHU216HW,2013-07-10 03:33:00,
2013-07-09 21:38:00,74.3,41.0,30.25,WSW,248,1.1,1.8,30,0.00,,,0.00,WUHU216HW,2013-07-10 03:38:00,
2013-07-09 21:43:00,74.0,40.6,30.25,WSW,248,1.6,1.8,30,0.00,,,0.00,WUHU216HW,2013-07-10 03:43:00,
2013-07-09 21:48:00,73.8,40.5,30.25,WSW,248,0.0,1.8,30,0.00,,,0.00,WUHU216HW,2013-07-10 03:48:00,
2013-07-09 21:53:00,73.6,40.3,30.26,WSW,248,1.1,1.8,30,0.00,,,0.00,WUHU216HW,2013-07-10 03:53:00,
2013-07-09 21:58:00,73.3,40.0,30.26,SSW,203,0.7,1.1,30,0.00,,,0.00,WUHU216HW,2013-07-10 03:58:00,
2013-07-09 22:01:00,73.1,39.9,30.26,SSW,203,0.9,1.6,30,0.00,,,0.00,WUHU216HW,2013-07-10 04:01:00,
2013-07-09 22:06:00,72.9,39.7,30.26,WSW,248,0.9,1.6,30,0.00,,,0.00,WUHU216HW,2013-07-10 04:06:00,
2013-07-09 22:11:00,72.5,39.4,30.26,WSW,248,0.4,1.6,30,0.00,,,0.00,WUHU216HW,2013-07-10 04:11:00,
2013-07-09 22:16:00,72.4,40.1,30.26,WSW,248,0.0,1.1,31,0.00,,,0.00,WUHU216HW,2013-07-10 04:16:00,
2013-07-09 22:21:00,72.0,39.7,30.26,WSW,248,0.0,0.4,31,0.00,,,0.00,WUHU216HW,2013-07-10 04:21:00,
2013-07-09 22:26:00,72.0,39.7,30.26,West,270,0.0,1.3,31,0.00,,,0.00,WUHU216HW,2013-07-10 04:26:00,
2013-07-09 22:31:00,71.6,39.4,30.27,West,270,0.0,1.3,31,0.00,,,0.00,WUHU216HW,2013-07-10 04:31:00,
2013-07-09 22:36:00,71.5,39.2,30.26,West,270,0.0,0.9,31,0.00,,,0.00,WUHU216HW,2013-07-10 04:36:00,
2013-07-09 22:41:00,71.3,39.9,30.27,SW,225,0.4,0.9,32,0.00,,,0.00,WUHU216HW,2013-07-10 04:41:00,
2013-07-09 22:46:00,70.9,39.5,30.27,West,270,1.8,2.2,32,0.00,,,0.00,WUHU216HW,2013-07-10 04:46:00,
2013-07-09 22:51:00,70.7,39.3,30.27,South,180,1.3,2.2,32,0.00,,,0.00,WUHU216HW,2013-07-10 04:51:00,
2013-07-09 22:56:00,70.4,39.1,30.27,SSW,203,0.0,1.8,32,0.00,,,0.00,WUHU216HW,2013-07-10 04:56:00,
2013-07-09 23:01:00,70.2,39.6,30.27,SW,225,0.0,1.3,33,0.00,,,0.00,WUHU216HW,2013-07-10 05:01:00,
2013-07-09 23:06:00,70.2,39.6,30.27,SW,225,0.7,0.7,33,0.00,,,0.00,WUHU216HW,2013-07-10 05:06:00,
2013-07-09 23:11:00,70.0,39.4,30.27,ESE,113,0.0,1.3,33,0.00,,,0.00,WUHU216HW,2013-07-10 05:11:00,
2013-07-09 23:16:00,69.8,39.3,30.27,West,270,0.0,1.3,33,0.00,,,0.00,WUHU216HW,2013-07-10 05:16:00,
2013-07-09 23:21:00,69.7,39.2,30.27,WSW,248,0.4,1.1,33,0.00,,,0.00,WUHU216HW,2013-07-10 05:21:00,
2013-07-09 23:26:00,69.5,39.0,30.27,SW,225,0.0,1.1,33,0.00,,,0.00,WUHU216HW,2013-07-10 05:26:00,
2013-07-09 23:31:00,69.5,39.7,30.27,SW,225,0.0,0.7,34,0.00,,,0.00,WUHU216HW,2013-07-10 05:31:00,
2013-07-09 23:36:00,69.3,39.5,30.28,SW,225,0.0,0.0,34,0.00,,,0.00,WUHU216HW,2013-07-10 05:36:00,
2013-07-09 23:41:00,69.1,39.4,30.28,SW,225,0.0,0.0,34,0.00,,,0.00,WUHU216HW,2013-07-10 05:41:00,
2013-07-09 23:46:00,68.9,39.3,30.28,SW,225,0.0,0.0,34,0.00,,,0.00,WUHU216HW,2013-07-10 05:46:00,
2013-07-09 23:51:00,68.8,39.1,30.28,SW,225,0.0,0.9,34,0.00,,,0.00,WUHU216HW,2013-07-10 05:51:00,
2013-07-09 23:56:00,68.6,39.6,30.28,West,270,1.6,1.8,35,0.00,,,0.00,WUHU216HW,2013-07-10 05:56:00,